This is the latest recevied weather packets stored in our database for station/object WP4TNV-13. If no packets are shown the sender has not sent any weather packets the latest 10 day(s).
| Time | Temp. | Humidity | Pressure | Rain* | Wind** | Luminosity | Snow |
|---|---|---|---|---|---|---|---|
| 1788138057 | 78° F | 86% | 759.8 mmHg | 0 in | - | - | - |
| 1788137937 | 78° F | 86% | 759.8 mmHg | 0 in | - | - | - |
| 1788137877 | 78° F | 86% | 759.8 mmHg | 0 in | - | - | - |
| 1788137817 | 78° F | 86% | 759.8 mmHg | 0 in | - | - | - |
| 1788137798 | 78° F | 86% | 759.8 mmHg | 0 in | - | - | - |
| 1788137796 | 78° F | 86% | 759.8 mmHg | 0 in | - | - | - |
| 1788137786 | 78° F | 86% | 759.8 mmHg | 0 in | - | - | - |
| 1788137778 | 78° F | 86% | 759.8 mmHg | 0 in | - | - | - |
| 1788137717 | 78° F | 86% | 759.8 mmHg | 0 in | - | - | - |
| 1788137700 | 78° F | 86% | 759.8 mmHg | 0 in | - | - | - |
| 1788137688 | 78° F | 86% | 759.8 mmHg | 0 in | - | - | - |
| 1788137613 | 78° F | 86% | 759.7 mmHg | 0 in | - | - | - |
| 1788137493 | 78° F | 86% | 759.7 mmHg | 0 in | - | - | - |
| 1788137373 | 78° F | 87% | 759.7 mmHg | 0 in | - | - | - |
| 1788137313 | 78° F | 87% | 759.7 mmHg | 0 in | - | - | - |
| 1788137253 | 78° F | 88% | 759.7 mmHg | 0 in | - | - | - |
| 1788137192 | 78° F | 88% | 759.7 mmHg | 0 in | - | - | - |
| 1788137132 | 78° F | 88% | 759.7 mmHg | 0 in | - | - | - |
| 1788136322 | 78° F | 86% | 759.4 mmHg | 0 in | - | - | - |
| 1788134522 | 78° F | 85% | 759.1 mmHg | 0 in | - | - | - |
| 1788132722 | 79° F | 86% | 759 mmHg | 0 in | - | - | - |
| 1788130922 | 80° F | 83% | 759.3 mmHg | 0 in | - | - | - |
| 1788129122 | 81° F | 82% | 759.4 mmHg | 0 in | - | - | - |
| 1788127322 | 82° F | 78% | 758.6 mmHg | 0 in | - | - | - |
| 1788125522 | 83° F | 80% | 758.5 mmHg | 0 in | - | - | - |
* Rain latest hour (hover to see other rain measurements)
** Current wind speed in m/s (hover to see current wind gust speed)